194  
ASUS41 KRLX 241010  
RWRRLX  
REGIONAL WEATHER ROUNDUP  
NATIONAL WEATHER SERVICE CHARLESTON WV  
600 AM EDT MON JUN 24 2024  
 
NOTE: "FAIR" INDICATES FEW OR NO CLOUDS BELOW 12,000 FEET WITH NO  
SIGNIFICANT WEATHER AND/OR S TO VISIBILITY
.  
 
WVZ003-241100-  
NORTHERN PANHANDLE OF WEST VIRGINIA  
 
CITY SKY/WX TMP DP RH WIND PRES REMARKS
 
WHEELING MOCLDY 66 62 87 NW5 29.85R  

 
 
WVZ009-241100-  
NORTHWEST WEST VIRGINIA  
 
CITY SKY/WX TMP DP RH WIND PRES REMARKS
 
PARKERSBURG PTCLDY 67 63 87 NW5 29.86R  

 
 
WVZ006-241100-  
WESTERN WEST VIRGINIA  
 
CITY SKY/WX TMP DP RH WIND PRES REMARKS
 
HUNTINGTON CLOUDY 73 68 84 N3 29.87R  
POINT PLEASANT NOT AVBL  

 
 
WVZ015-241100-  
WEST CENTRAL WEST VIRGINIA  
 
CITY SKY/WX TMP DP RH WIND PRES REMARKS
 
CHARLESTON MOCLDY 73 69 87 NW3 29.86R  

 
 
WVZ509-031-039-241100-  
NORTH CENTRAL WEST VIRGINIA  
 
CITY SKY/WX TMP DP RH WIND PRES REMARKS
 
MORGANTOWN PTCLDY 68 65 90 CALM 29.84R  
CLARKSBURG MOCLDY 69 67 93 NW3 29.83R  
BUCKHANNON CLOUDY 73 73 100 NW5 29.86R  
SUTTON CLOUDY 70 68 94 CALM 29.86R  

 
 
WVZ515-516-025-034-042-507-241100-  
SOUTHERN WEST VIRGINIA  
 
CITY SKY/WX TMP DP RH WIND PRES REMARKS
 
BECKLEY MOCLDY 68 65 90 NW7 29.91R FOG  
LOGAN NOT AVBL  
PINEVILLE CLOUDY 73 72 97 MISG 29.94S FOG  
BLUEFIELD MOCLDY 68 64 87 W8 29.94R  
LEWISBURG MOCLDY 69 67 94 CALM 29.89S  

 
 
WVZ525-526-241100-  
NORTHERN MOUNTAINS OF WEST VIRGINIA  
 
CITY SKY/WX TMP DP RH WIND PRES REMARKS
 
ELKINS CLOUDY 68 67 96 CALM 29.86S  

 
 
WVZ502-504-052-241100-  
EASTERN PANHANDLE OF WEST VIRGINIA  
 
CITY SKY/WX TMP DP RH WIND PRES REMARKS
 
PETERSBURG CLOUDY 69 69 100 NE3 29.79R FOG  
CUMBERLAND PTCLDY 72 62 71 NW9 29.81R  
MARTINSBURG CLEAR 73 63 70 NW12 29.73R  

 
 
OHZ075-083-KYZ101-241100-  
SOUTHEAST OHIO/NORTHEAST KENTUCKY  
 
CITY SKY/WX TMP DP RH WIND PRES REMARKS
 
ATHENS PTCLDY 65 61 86 W3 29.88R  
JACKSON CLEAR 66 63 88 N5 29.90R  
ASHLAND CLEAR 69 32 25 VRB3 29.89R  

 
 
 
CLICK HERE TO GO TO PREVIOUS BULLETINS.

The Nexlab WV Page
The Nexlab OH Page
The Nexlab KY Page
The Nexlab VA Page Main Text Page